EW4074 Winchester VA US current weather conditions

sailwx.info

Wind from 297 at 1 knots gusting 8

Air temperature 12.2° C
Dewpoint 5.4° C

Last reported at 2019-Dec-06 21:00 UTC.
Time now 2019-Dec-06 21:29 UTC

Location: N 39°17' W 078°07'.
View on Google Maps.

See reports from other nearby stations

  
Tides and Currents Weather Stations Pressure Air Temp Water Temp Dewpoint Dewpoint Depression Visibility Wind Speed Wind Dir Waves Ship Positions
date/time (UTC)wind fromknots sea level pressurealtimeterstation pressurevisibilityair tempwater tempwave heightnotes
2019-Dec-06 21:00 297 1 gusting 8 12.2
2019-Dec-06 20:55 287 2 gusting 8 12.2
2019-Dec-06 20:50 277 2 gusting 12 12.2
2019-Dec-06 20:45 194 2 gusting 12 12.2
2019-Dec-06 20:40 167 2 gusting 10 12.2
2019-Dec-06 20:34 276 2 gusting 10 12.2
2019-Dec-06 20:29 280 1 gusting 8 12.2
2019-Dec-06 20:24 290 1 gusting 13 12.2
2019-Dec-06 20:19 271 1 gusting 13 12.2
2019-Dec-06 20:14 262 1 gusting 6 11.7
2019-Dec-06 20:09 178 0 gusting 3 11.1
2019-Dec-06 20:04 211 0 gusting 3 11.1
2019-Dec-06 19:59 236 0 gusting 4 11.1
2019-Dec-06 19:53 242 1 gusting 4 11.1
2019-Dec-06 19:48 250 1 gusting 4 11.1
2019-Dec-06 19:43 245 1 gusting 3 11.1
2019-Dec-06 19:38 249 1 gusting 4 11.1
2019-Dec-06 19:33 244 1 gusting 4 11.1
2019-Dec-06 19:28 247 1 gusting 3 11.1
2019-Dec-06 19:23 253 1 gusting 3 11.1
2019-Dec-06 19:18 207 1 gusting 5 10.6
2019-Dec-06 19:13 131 1 gusting 5 10.6
2019-Dec-06 19:08 200 1 gusting 5 10.6
2019-Dec-06 19:03 251 2 gusting 6 10.6
2019-Dec-06 18:58 261 2 gusting 6 10.6
2019-Dec-06 18:53 156 2 gusting 10 10.6
2019-Dec-06 18:48 235 3 gusting 10 10.6
2019-Dec-06 18:43 244 3 gusting 7 10.6
2019-Dec-06 18:38 232 3 gusting 7 10.6
2019-Dec-06 18:33 260 3 gusting 8 10.6
2019-Dec-06 18:28 255 3 gusting 9 10.6
2019-Dec-06 18:23 225 4 gusting 9 10.6
2019-Dec-06 18:18 155 4 gusting 11 10.6
2019-Dec-06 18:13 222 3 gusting 11 10.6
2019-Dec-06 18:08 157 3 gusting 8 10.0
2019-Dec-06 18:03 220 3 gusting 8 10.0
2019-Dec-06 17:58 244 3 gusting 8 10.0
2019-Dec-06 17:53 159 4 gusting 11 10.0
2019-Dec-06 17:48 265 4 gusting 11 10.0
2019-Dec-06 17:43 232 4 gusting 9 10.0
2019-Dec-06 17:38 165 3 gusting 9 10.0
2019-Dec-06 17:33 183 3 gusting 8 10.0
2019-Dec-06 17:28 115 2 gusting 9 10.0
2019-Dec-06 17:23 198 3 gusting 9 10.0
2019-Dec-06 17:18 229 3 gusting 8 10.0
2019-Dec-06 17:13 162 2 gusting 6 9.4
2019-Dec-06 17:08 202 2 gusting 5 9.4
2019-Dec-06 17:03 233 2 gusting 6 9.4
2019-Dec-06 16:58 247 2 gusting 6 9.4
2019-Dec-06 16:53 207 2 gusting 6 9.4
2019-Dec-06 16:48 173 2 gusting 10 9.4
2019-Dec-06 16:43 236 3 gusting 10 9.4
2019-Dec-06 16:38 269 3 gusting 7 9.4
2019-Dec-06 16:33 210 3 gusting 7 9.4
2019-Dec-06 16:28 248 3 gusting 6 8.9
2019-Dec-06 16:23 166 2 gusting 6 8.9
2019-Dec-06 16:18 157 2 gusting 8 8.9
2019-Dec-06 16:13 108 2 gusting 8 8.9
2019-Dec-06 16:08 237 2 gusting 6 8.9
2019-Dec-06 16:03 153 2 gusting 6 8.9
2019-Dec-06 15:58 229 1 gusting 6 8.9
2019-Dec-06 15:53 259 1 gusting 6 8.3
2019-Dec-06 15:48 148 2 gusting 5 8.3
2019-Dec-06 15:43 242 1 gusting 6 8.3
2019-Dec-06 15:37 191 1 gusting 6 8.3
2019-Dec-06 15:32 227 1 gusting 6 8.3
2019-Dec-06 15:27 187 1 gusting 6 8.3
2019-Dec-06 15:22 178 1 gusting 6 7.8
2019-Dec-06 15:17 186 1 gusting 5 7.8
2019-Dec-06 15:12 215 1 gusting 6 7.8
2019-Dec-06 15:07 229 1 gusting 6 7.8
2019-Dec-06 15:02 207 2 gusting 5 7.8
2019-Dec-06 14:57 250 2 gusting 5 7.8
2019-Dec-06 14:52 104 3 gusting 7 7.8
2019-Dec-06 14:47 160 2 gusting 7 7.8
2019-Dec-06 14:42 205 2 gusting 6 7.8
2019-Dec-06 14:37 235 2 gusting 7 7.2
2019-Dec-06 14:32 217 2 gusting 7 7.2
2019-Dec-06 14:27 246 2 gusting 6 7.2
2019-Dec-06 14:22 178 3 gusting 9 7.2
2019-Dec-06 14:17 150 2 gusting 9 7.2
2019-Dec-06 14:12 135 2 gusting 6 7.2
2019-Dec-06 14:07 192 2 gusting 7 7.2
2019-Dec-06 14:02 216 2 gusting 7 6.7
2019-Dec-06 13:57 219 2 gusting 6 6.7
2019-Dec-06 13:52 219 2 gusting 7 6.7
2019-Dec-06 13:47 240 2 gusting 7 6.1
2019-Dec-06 13:42 162 2 gusting 6 5.6
2019-Dec-06 13:37 253 2 gusting 7 5.6
2019-Dec-06 13:32 249 1 gusting 7 5.6
2019-Dec-06 13:26 237 1 gusting 5 5.0
2019-Dec-06 13:21 219 2 gusting 6 5.0
2019-Dec-06 13:16 195 1 gusting 6 5.0
2019-Dec-06 13:11 237 1 gusting 3 5.0
2019-Dec-06 13:06 243 1 gusting 2 4.4
2019-Dec-06 13:01 245 0 gusting 2 4.4
2019-Dec-06 12:56 226 0 gusting 2 4.4
2019-Dec-06 12:51 233 1 gusting 5 4.4
2019-Dec-06 12:46 248 1 gusting 5 3.9
2019-Dec-06 12:41 259 1 gusting 5 3.9
2019-Dec-06 12:36 176 1 gusting 3 3.9
2019-Dec-06 12:31 203 1 gusting 4 3.3
2019-Dec-06 12:26 234 1 gusting 4 3.3
2019-Dec-06 12:21 229 1 gusting 3 3.3
2019-Dec-06 12:16 255 1 gusting 3 2.8
2019-Dec-06 12:11 256 1 gusting 3 2.8
2019-Dec-06 12:06 252 0 gusting 3 2.2
2019-Dec-06 12:01 248 0 gusting 2 1.7
2019-Dec-06 11:56 210 0.6
2019-Dec-06 11:51 234 -0.0
2019-Dec-06 11:46 246 -0.6
2019-Dec-06 11:40 246 -1.7
2019-Dec-06 11:35 255 -1.7
2019-Dec-06 11:30 255 -1.7
2019-Dec-06 11:25 255 -1.1
2019-Dec-06 11:20 255 -0.6
2019-Dec-06 11:15 255 -0.6
2019-Dec-06 11:10 255 -0.0
2019-Dec-06 11:05 255 -0.0
2019-Dec-06 10:59 255 0.6
2019-Dec-06 10:54 255 1.1
2019-Dec-06 10:49 255 1.7
2019-Dec-06 10:44 255 2.2
2019-Dec-06 10:39 255 2.8
2019-Dec-06 10:34 255 2.8
2019-Dec-06 10:29 251 0 gusting 1 2.8
2019-Dec-06 10:24 254 0 gusting 3 2.8
2019-Dec-06 10:19 229 0 gusting 3 2.8
2019-Dec-06 10:14 259 0 gusting 3 2.8
2019-Dec-06 10:09 242 0 gusting 1 2.8
2019-Dec-06 10:04 242 0 gusting 1 2.2
2019-Dec-06 09:59 250 0 gusting 2 2.2
2019-Dec-06 09:54 234 0 gusting 3 1.7
2019-Dec-06 09:49 231 0 gusting 3 1.1
2019-Dec-06 09:44 239 0.6
2019-Dec-06 09:39 225 -0.0
2019-Dec-06 09:34 225 -0.6
2019-Dec-06 09:29 169 -1.7
2019-Dec-06 09:23 168 -2.2
2019-Dec-06 09:18 168 -2.8
2019-Dec-06 09:13 168 -3.3
2019-Dec-06 09:08 168 -3.3
2019-Dec-06 09:03 168 -3.9
2019-Dec-06 08:58 168 -3.9
2019-Dec-06 08:53 168 -3.9
2019-Dec-06 08:48 168 -3.9
2019-Dec-06 08:43 168 -3.9
2019-Dec-06 08:38 168 -4.4
2019-Dec-06 08:33 168 -4.4
2019-Dec-06 08:28 168 -4.4
2019-Dec-06 08:23 168 -4.4
2019-Dec-06 08:18 168 -4.4
2019-Dec-06 08:13 168 -4.4
2019-Dec-06 08:08 168 -4.4
2019-Dec-06 08:03 168 -4.4
2019-Dec-06 07:58 168 -5.0
2019-Dec-06 07:53 168 -4.4
2019-Dec-06 07:48 168 -4.4
2019-Dec-06 07:43 168 -4.4
2019-Dec-06 07:38 168 -4.4
2019-Dec-06 07:33 168 -4.4
2019-Dec-06 07:28 168 -4.4
2019-Dec-06 07:23 168 -4.4
2019-Dec-06 07:18 168 -3.9
2019-Dec-06 07:12 168 -3.9
2019-Dec-06 07:07 168 -3.9
2019-Dec-06 07:02 168 -3.9
2019-Dec-06 06:57 168 -3.9
2019-Dec-06 06:52 168 -3.3
2019-Dec-06 06:47 168 -3.3
2019-Dec-06 06:42 168 -3.3
2019-Dec-06 06:37 168 -3.3
2019-Dec-06 06:31 168 -3.3
2019-Dec-06 06:26 168 -3.3
2019-Dec-06 06:21 168 -3.3
2019-Dec-06 06:16 168 -3.3
2019-Dec-06 06:11 168 -3.3
2019-Dec-06 06:06 168 -3.3
2019-Dec-06 06:01 168 -3.3
2019-Dec-06 05:56 168 -3.3
2019-Dec-06 05:51 168 -3.3
2019-Dec-06 05:46 168 -3.3
2019-Dec-06 05:41 168 -3.3
2019-Dec-06 05:36 168 -3.3
2019-Dec-06 05:31 168 -2.8
2019-Dec-06 05:26 168 -2.8
2019-Dec-06 05:21 168 -2.8
2019-Dec-06 05:16 168 -2.8
2019-Dec-06 05:11 168 -2.8
2019-Dec-06 05:06 233 -2.2
2019-Dec-06 05:01 233 -2.2
2019-Dec-06 04:56 233 -2.2
2019-Dec-06 04:51 233 -2.2
2019-Dec-06 04:46 233 -2.2
2019-Dec-06 04:40 233 -2.8
2019-Dec-06 04:35 233 -2.8
2019-Dec-06 04:30 233 -2.8
2019-Dec-06 04:25 232 -2.8
2019-Dec-06 04:20 233 -2.8
2019-Dec-06 04:15 233 -2.8
2019-Dec-06 04:10 233 -2.8
2019-Dec-06 04:05 233 -2.8
2019-Dec-06 04:00 233 -3.3
2019-Dec-06 03:55 233 -3.3
2019-Dec-06 03:50 233 -3.9
2019-Dec-06 03:45 233 -3.9
2019-Dec-06 03:40 233 -3.9
2019-Dec-06 03:35 233 -3.9
2019-Dec-06 03:30 233 -3.3
2019-Dec-06 03:25 233 -3.3
2019-Dec-06 03:20 233 -3.3
2019-Dec-06 03:15 233 -3.3
2019-Dec-06 03:10 233 -3.3
2019-Dec-06 03:05 233 -3.3
2019-Dec-06 03:00 233 -2.8
2019-Dec-06 02:55 233 -2.8
2019-Dec-06 02:50 233 -2.8
2019-Dec-06 02:45 233 -2.8
2019-Dec-06 02:40 233 -2.8
2019-Dec-06 02:35 233 -2.8
2019-Dec-06 02:30 227 -2.8
2019-Dec-06 02:25 221 -2.8
2019-Dec-06 02:20 221 -2.8
2019-Dec-06 02:15 221 -2.8
2019-Dec-06 02:10 213 -2.8
2019-Dec-06 02:05 213 -2.8
2019-Dec-06 01:59 213 -2.8
2019-Dec-06 01:54 213 -2.8
2019-Dec-06 01:49 213 -2.2
2019-Dec-06 01:44 213 -2.2
2019-Dec-06 01:39 213 -2.2
2019-Dec-06 01:34 213 -1.7
2019-Dec-06 01:29 213 -1.7
2019-Dec-06 01:24 213 -1.1
2019-Dec-06 01:19 213 -1.1
2019-Dec-06 01:14 213 -0.6
2019-Dec-06 01:09 213 -0.0
2019-Dec-06 01:04 213 0.6
2019-Dec-06 00:59 213 1.1
2019-Dec-06 00:54 213 1.7
2019-Dec-06 00:49 213 1.7
2019-Dec-06 00:44 214 0 gusting 1 2.2
2019-Dec-06 00:39 202 0 gusting 3 2.8
2019-Dec-06 00:34 163 2.8
2019-Dec-06 00:29 233 2.8
2019-Dec-06 00:24 209 0 gusting 3 2.8
2019-Dec-06 00:14 265 0 gusting 4 2.2
2019-Dec-06 00:09 257 0 gusting 4 2.8
2019-Dec-06 00:04 323 0 gusting 3 2.8
2019-Dec-05 23:59 258 0 gusting 3 2.8
2019-Dec-05 23:54 257 0 gusting 3 2.2
2019-Dec-05 23:49 286 2.2
2019-Dec-05 23:44 281 0 gusting 2 1.7
2019-Dec-05 23:39 286 1.7
2019-Dec-05 23:34 295 1.7
2019-Dec-05 23:29 296 0 gusting 5 2.2
2019-Dec-05 23:24 220 0 gusting 5 1.7
2019-Dec-05 23:19 296 1.7
2019-Dec-05 23:14 299 0 gusting 4 1.7
2019-Dec-05 23:09 254 0 gusting 4 1.7
2019-Dec-05 23:04 267 1.7
2019-Dec-05 22:59 280 1.1
2019-Dec-05 22:54 280 1.1
2019-Dec-05 22:49 258 1.7
2019-Dec-05 22:44 288 1.1
2019-Dec-05 22:39 262 1.7
2019-Dec-05 22:33 262 1.7
2019-Dec-05 22:28 287 2.2
2019-Dec-05 22:23 287 2.2
2019-Dec-05 22:18 287 2.8
2019-Dec-05 22:13 287 3.3
2019-Dec-05 22:08 267 3.3
2019-Dec-05 22:03 267 0 gusting 4 3.9
2019-Dec-05 21:58 264 0 gusting 6 3.9
2019-Dec-05 21:53 282 0 gusting 5 4.4
2019-Dec-05 21:48 280 1 gusting 6 4.4
2019-Dec-05 21:43 284 1 gusting 6 4.4
2019-Dec-05 21:38 257 0 gusting 6 4.4
2019-Dec-05 21:33 244 0 gusting 6 4.4
2019-Dec-05 21:28 248 0 gusting 7 5.0
2019-Dec-05 21:23 265 1 gusting 8 5.0
2019-Dec-05 21:18 221 1 gusting 8 5.0
2019-Dec-05 21:13 209 1 gusting 4 5.6
2019-Dec-05 21:08 218 1 gusting 6 5.6
2019-Dec-05 21:03 288 2 gusting 6 5.6
2019-Dec-05 20:58 242 3 gusting 12 5.6
2019-Dec-05 20:53 223 3 gusting 12 5.6
2019-Dec-05 20:48 267 3 gusting 11 5.6
2019-Dec-05 20:43 230 2 gusting 8 5.6
2019-Dec-05 20:38 276 2 gusting 8 6.1
2019-Dec-05 20:33 199 2 gusting 8 5.6
2019-Dec-05 20:28 105 3 gusting 8 5.6
2019-Dec-05 20:23 286 3 gusting 8 5.6
2019-Dec-05 20:18 271 2 gusting 7 5.6
2019-Dec-05 20:13 288 3 gusting 11 5.6
2019-Dec-05 20:08 225 3 gusting 11 5.6
2019-Dec-05 20:03 203 4 gusting 12 6.1
2019-Dec-05 19:58 266 4 gusting 12 6.1
2019-Dec-05 19:53 298 4 gusting 11 6.1
2019-Dec-05 19:48 253 3 gusting 8 6.1
2019-Dec-05 19:42 096 3 gusting 12 6.7
2019-Dec-05 19:38 254 4 gusting 12 6.1
2019-Dec-05 19:33 258 5 gusting 13 6.7
2019-Dec-05 19:28 340 4 gusting 13 6.7
2019-Dec-05 19:22 279 4 gusting 11 6.7
2019-Dec-05 19:18 227 3 gusting 11 6.7
2019-Dec-05 19:12 292 3 gusting 9 6.7
2019-Dec-05 19:07 075 3 gusting 8 6.7
2019-Dec-05 19:02 273 3 gusting 9 6.7
2019-Dec-05 18:57 199 3 gusting 9 6.7
2019-Dec-05 18:52 280 2 gusting 8 6.7
2019-Dec-05 18:47 235 2 gusting 6 6.7
2019-Dec-05 18:42 286 2 gusting 9 6.7
2019-Dec-05 18:37 248 3 gusting 10 6.7
2019-Dec-05 18:32 281 4 gusting 10 6.1
2019-Dec-05 18:27 203 3 gusting 8 6.1
2019-Dec-05 18:22 244 3 gusting 12 6.7
2019-Dec-05 18:17 282 4 gusting 12 6.1
2019-Dec-05 18:12 011 5 gusting 10 6.1
2019-Dec-05 18:07 272 4 gusting 10 6.7
2019-Dec-05 18:02 296 2 gusting 10 6.7
2019-Dec-05 17:57 175 3 gusting 7 6.7
2019-Dec-05 17:52 087 3 gusting 11 6.7
2019-Dec-05 17:47 299 3 gusting 11 6.1
2019-Dec-05 17:42 232 4 gusting 10 6.1
2019-Dec-05 17:37 314 3 gusting 10 6.1
2019-Dec-05 17:32 272 4 gusting 15 6.1
2019-Dec-05 17:27 306 4 gusting 15 6.1
2019-Dec-05 17:22 268 4 gusting 11 6.1
2019-Dec-05 17:17 270 3 gusting 10 5.6
2019-Dec-05 17:12 272 3 gusting 8 5.6
2019-Dec-05 17:07 272 4 gusting 12 5.6
2019-Dec-05 17:02 297 4 gusting 12 5.6
2019-Dec-05 16:57 265 5 gusting 13 5.6
2019-Dec-05 16:52 302 5 gusting 13 5.6
2019-Dec-05 16:47 271 4 gusting 11 5.6
2019-Dec-05 16:42 287 3 gusting 12 5.6
2019-Dec-05 16:37 297 3 gusting 12 5.6
2019-Dec-05 16:32 244 3 gusting 8 4.4
2019-Dec-05 16:27 019 3 gusting 8 4.4
2019-Dec-05 16:22 178 2 gusting 8 4.4
2019-Dec-05 16:17 277 2 gusting 8 4.4
2019-Dec-05 16:12 270 2 gusting 8 4.4
2019-Dec-05 16:07 325 3 gusting 11 4.4
2019-Dec-05 16:02 223 4 gusting 12 4.4
2019-Dec-05 15:57 306 3 gusting 12 4.4
2019-Dec-05 15:52 327 3 gusting 16 4.4
2019-Dec-05 15:47 240 4 gusting 16 4.4
2019-Dec-05 15:42 288 3 gusting 10 4.4
2019-Dec-05 15:37 247 3 gusting 10 4.4
2019-Dec-05 15:32 136 2 gusting 10 4.4
2019-Dec-05 15:27 246 4 gusting 10 4.4
2019-Dec-05 15:22 033 3 gusting 10 4.4
2019-Dec-05 15:17 276 3 gusting 11 4.4
2019-Dec-05 15:11 042 5 gusting 11 4.4
2019-Dec-05 15:06 253 5 gusting 12 4.4
2019-Dec-05 15:02 297 4 gusting 12 4.4
2019-Dec-05 14:56 296 3 gusting 11 4.4
2019-Dec-05 14:51 244 3 gusting 11 4.4
2019-Dec-05 14:46 227 4 gusting 11 4.4
2019-Dec-05 14:41 117 4 gusting 11 3.9
2019-Dec-05 14:36 282 4 gusting 13 3.9
2019-Dec-05 14:31 278 4 gusting 13 3.9
2019-Dec-05 14:26 250 4 gusting 13 3.9
2019-Dec-05 14:21 259 2 gusting 12 3.3
2019-Dec-05 14:17 216 2 gusting 8 3.3
2019-Dec-05 14:11 225 3 gusting 13 3.3
2019-Dec-05 14:06 271 4 gusting 13 3.3
2019-Dec-05 14:01 275 2 gusting 13 3.9
2019-Dec-05 13:56 060 3 gusting 10 3.9
2019-Dec-05 13:51 283 4 gusting 12 3.9
2019-Dec-05 13:46 223 3 gusting 12 3.9
2019-Dec-05 13:41 246 3 gusting 7 3.9
2019-Dec-05 13:36 309 3 gusting 10 3.3
2019-Dec-05 13:31 313 2 gusting 10 3.3
2019-Dec-05 13:26 246 1 gusting 8 3.3
2019-Dec-05 13:21 217 1 gusting 6 3.3
2019-Dec-05 13:16 257 2 gusting 6 3.3
2019-Dec-05 13:11 198 1 gusting 7 2.8
2019-Dec-05 13:06 147 1 gusting 7 2.8
2019-Dec-05 13:01 165 1 gusting 4 2.8
2019-Dec-05 12:56 201 1 gusting 9 2.2
2019-Dec-05 12:51 234 1 gusting 9 2.2
2019-Dec-05 12:46 267 2 gusting 6 2.8
2019-Dec-05 12:41 256 2 gusting 8 2.8
2019-Dec-05 12:36 348 1 gusting 8 2.8
2019-Dec-05 12:30 313 1 gusting 6 2.8
2019-Dec-05 12:25 260 0 gusting 6 2.8
2019-Dec-05 12:20 168 1 gusting 6 2.8
2019-Dec-05 12:15 313 2 gusting 7 2.8
2019-Dec-05 12:10 292 2 gusting 7 2.8
2019-Dec-05 12:05 143 1 gusting 7 2.2
2019-Dec-05 12:00 219 1 gusting 7 2.2
2019-Dec-05 11:55 248 1 gusting 7 2.2
2019-Dec-05 11:50 131 1 gusting 8 2.2
2019-Dec-05 11:45 214 1 gusting 8 2.2
2019-Dec-05 11:40 288 2 gusting 11 2.2
2019-Dec-05 11:35 316 2 gusting 11 2.2
2019-Dec-05 11:30 205 2 gusting 8 2.2
2019-Dec-05 11:25 302 1 gusting 6 2.2
2019-Dec-05 11:20 268 2 gusting 6 2.2
2019-Dec-05 11:15 289 2 gusting 6 2.2
2019-Dec-05 11:10 269 2 gusting 9 2.2
2019-Dec-05 11:05 237 2 gusting 9 2.2
2019-Dec-05 11:00 288 1 gusting 7 2.2
2019-Dec-05 10:55 283 1 gusting 7 2.2
2019-Dec-05 10:50 265 2 gusting 9 2.2
2019-Dec-05 10:45 236 2 gusting 9 2.2
2019-Dec-05 10:40 305 2 gusting 9 2.2
2019-Dec-05 10:35 172 3 gusting 9 2.2
2019-Dec-05 10:30 290 4 gusting 11 2.2
2019-Dec-05 10:25 193 4 gusting 11 2.2
2019-Dec-05 10:20 278 3 gusting 11 1.7
2019-Dec-05 10:15 299 2 gusting 11 1.7
2019-Dec-05 10:10 304 2 gusting 9 1.7
2019-Dec-05 10:05 237 3 gusting 9 1.7
2019-Dec-05 10:00 302 4 gusting 9 1.7
2019-Dec-05 09:55 231 3 gusting 9 1.7
2019-Dec-05 09:50 344 2 gusting 9 1.7
2019-Dec-05 09:45 273 2 gusting 7 1.7
2019-Dec-05 09:40 288 2 gusting 7 1.7
2019-Dec-05 09:35 247 2 gusting 8 1.7
2019-Dec-05 09:30 259 3 gusting 10 2.2
2019-Dec-05 09:25 298 3 gusting 10 2.2
2019-Dec-05 09:20 265 3 gusting 10 2.2
2019-Dec-05 09:15 240 2 gusting 10 2.2
2019-Dec-05 09:10 254 2 gusting 7 2.2
2019-Dec-05 09:05 229 2 gusting 8 2.8
2019-Dec-05 09:00 240 2 gusting 9 2.8
2019-Dec-05 08:55 250 2 gusting 10 2.8
2019-Dec-05 08:49 271 3 gusting 13 2.8
2019-Dec-05 08:44 269 3 gusting 13 2.8
2019-Dec-05 08:39 263 3 gusting 10 2.8
2019-Dec-05 08:34 226 4 gusting 13 2.8
2019-Dec-05 08:29 246 4 gusting 13 2.8
2019-Dec-05 08:24 281 2 gusting 7 2.8
2019-Dec-05 08:19 331 2 gusting 7 2.8
2019-Dec-05 08:14 272 1 gusting 7 2.8
2019-Dec-05 08:09 244 2 gusting 7 2.2
2019-Dec-05 08:04 225 1 gusting 6 2.2
2019-Dec-05 07:59 286 0 gusting 6 2.2
2019-Dec-05 07:54 187 1 gusting 5 2.2
2019-Dec-05 07:49 242 1 gusting 6 2.2
2019-Dec-05 07:44 295 2 gusting 7 2.2
2019-Dec-05 07:39 196 2 gusting 7 2.2
2019-Dec-05 07:34 288 0 gusting 5 2.2
2019-Dec-05 07:29 173 1 gusting 5 2.2
2019-Dec-05 07:24 258 1 gusting 6 2.2
2019-Dec-05 07:19 245 1 gusting 7 2.2
2019-Dec-05 07:14 269 2 gusting 7 2.2
2019-Dec-05 07:09 277 2 gusting 8 2.2
2019-Dec-05 07:04 292 2 gusting 8 2.2
2019-Dec-05 06:59 303 2 gusting 7 2.2
2019-Dec-05 06:54 229 1 gusting 6 2.2
2019-Dec-05 06:49 298 1 gusting 4 2.2
2019-Dec-05 06:44 240 1 gusting 6 2.2
2019-Dec-05 06:39 271 1 gusting 7 2.2
2019-Dec-05 06:34 281 1 gusting 7 2.2
2019-Dec-05 06:29 238 1 gusting 6 2.2
2019-Dec-05 06:24 269 2 gusting 10 2.2
2019-Dec-05 06:19 197 2 gusting 10 2.8
2019-Dec-05 06:14 284 2 gusting 11 2.8
2019-Dec-05 06:09 217 3 gusting 11 2.8
2019-Dec-05 06:04 283 3 gusting 11 2.8
2019-Dec-05 05:59 254 3 gusting 10 2.8
2019-Dec-05 05:54 281 2 gusting 10 2.8
2019-Dec-05 05:49 313 3 gusting 11 3.3
2019-Dec-05 05:44 292 2 gusting 11 3.3
2019-Dec-05 05:38 276 0 gusting 6 3.3
2019-Dec-05 05:33 217 0 gusting 3 3.3
2019-Dec-05 05:28 252 1 gusting 4 3.3
2019-Dec-05 05:23 247 1 gusting 5 3.3
2019-Dec-05 05:18 259 0 gusting 5 3.3
2019-Dec-05 05:13 244 0 gusting 2 3.3
2019-Dec-05 05:08 278 0 gusting 2 3.3
2019-Dec-05 05:03 248 0 gusting 5 3.3
2019-Dec-05 04:58 226 0 gusting 5 2.8
2019-Dec-05 04:53 299 0 gusting 2 2.8
2019-Dec-05 04:48 281 0 gusting 2 2.8
2019-Dec-05 04:43 257 0 gusting 2 2.8
2019-Dec-05 04:38 246 0 gusting 2 2.8
2019-Dec-05 04:33 296 2.8
2019-Dec-05 04:28 286 0 gusting 4 2.8
2019-Dec-05 04:23 275 0 gusting 4 2.8
2019-Dec-05 04:18 232 0 gusting 2 2.8
2019-Dec-05 04:13 222 0 gusting 3 2.8
2019-Dec-05 04:08 265 0 gusting 3 2.2
2019-Dec-05 04:03 311 2.2
2019-Dec-05 03:58 256 2.2
2019-Dec-05 03:53 283 2.2
2019-Dec-05 03:48 259 2.2
2019-Dec-05 03:43 259 2.8
2019-Dec-05 03:38 259 2.8
2019-Dec-05 03:33 291 0 gusting 4 2.8
2019-Dec-05 03:28 277 0 gusting 4 3.3
2019-Dec-05 03:23 244 0 gusting 2 3.3
2019-Dec-05 03:18 218 0 gusting 3 3.3
2019-Dec-05 03:13 265 0 gusting 3 3.9
2019-Dec-05 03:08 255 0 gusting 5 3.9
2019-Dec-05 03:03 267 0 gusting 5 3.9
2019-Dec-05 02:58 225 0 gusting 4 3.9
2019-Dec-05 02:52 038 0 gusting 4 4.4
2019-Dec-05 02:47 258 0 gusting 2 4.4
2019-Dec-05 02:42 286 0 gusting 3 4.4
2019-Dec-05 02:37 132 0 gusting 3 4.4
2019-Dec-05 02:32 067 0 gusting 3 4.4
2019-Dec-05 02:27 309 0 gusting 2 4.4
2019-Dec-05 02:22 271 0 gusting 3 5.0
2019-Dec-05 02:17 281 1 gusting 6 5.0
2019-Dec-05 02:12 103 2 gusting 6 5.0
2019-Dec-05 02:07 277 1 gusting 6 4.4
2019-Dec-05 02:02 273 2 gusting 6 4.4
2019-Dec-05 01:57 282 1 gusting 9 3.9
2019-Dec-05 01:52 298 0 gusting 9 3.3
2019-Dec-05 01:47 289 2.8
2019-Dec-05 01:42 014 2.8
2019-Dec-05 01:37 323 3.3
2019-Dec-05 01:32 327 3.3
2019-Dec-05 01:27 331 3.9
2019-Dec-05 01:22 319 3.3
2019-Dec-05 01:17 262 3.3
2019-Dec-05 01:12 258 3.3
2019-Dec-05 01:07 291 3.3
2019-Dec-05 01:02 252 3.9
2019-Dec-05 00:57 252 4.4
2019-Dec-05 00:52 254 4.4
2019-Dec-05 00:47 265 0 gusting 3 5.0
2019-Dec-05 00:41 278 0 gusting 6 5.0
2019-Dec-05 00:36 245 0 gusting 6 5.0
2019-Dec-05 00:31 252 0 gusting 4 5.0
2019-Dec-05 00:26 286 0 gusting 4 5.0
2019-Dec-05 00:21 294 0 gusting 4 5.0
2019-Dec-05 00:16 272 0 gusting 4 5.0
2019-Dec-05 00:11 277 0 gusting 4 5.0
2019-Dec-05 00:06 280 0 gusting 4 5.0
2019-Dec-05 00:01 276 0 gusting 3 5.0
2019-Dec-04 23:56 267 0 gusting 3 5.0
2019-Dec-04 23:51 284 0 gusting 2 5.0
2019-Dec-04 23:46 276 0 gusting 1 5.0
2019-Dec-04 23:41 264 0 gusting 2 5.0
2019-Dec-04 23:35 240 0 gusting 4 5.0
2019-Dec-04 23:30 274 0 gusting 4 5.0
2019-Dec-04 23:25 291 0 gusting 3 5.0
2019-Dec-04 23:20 267 1 gusting 6 5.0
2019-Dec-04 23:15 298 1 gusting 6 5.0
2019-Dec-04 23:10 288 0 gusting 4 5.0
2019-Dec-04 23:05 253 1 gusting 4 5.0
2019-Dec-04 23:00 284 1 gusting 7 5.0
2019-Dec-04 22:55 214 1 gusting 7 5.0
2019-Dec-04 22:49 235 1 gusting 6 5.0
2019-Dec-04 22:44 265 1 gusting 6 5.0
2019-Dec-04 22:39 263 1 gusting 6 5.6
2019-Dec-04 22:34 265 3 gusting 9 5.6
2019-Dec-04 22:29 293 4 gusting 12 5.6
2019-Dec-04 22:24 211 4 gusting 12 5.6
2019-Dec-04 22:19 280 4 gusting 11 5.6
2019-Dec-04 22:14 263 3 gusting 10 5.6
2019-Dec-04 22:09 307 2 gusting 9 5.6
2019-Dec-04 22:04 233 3 gusting 13 5.6
2019-Dec-04 21:59 275 3 gusting 13 5.6
2019-Dec-04 21:54 263 3 gusting 9 5.6
2019-Dec-04 21:49 210 3 gusting 12 5.6
2019-Dec-04 21:44 275 3 gusting 12 5.6
2019-Dec-04 21:39 101 4 gusting 13 5.6
2019-Dec-04 21:34 145 4 gusting 13 6.1
2019-Dec-04 21:29 231 3 gusting 12 6.1
2019-Dec-04 21:24 254 2 gusting 12 6.1
2019-Dec-04 21:19 253 2 gusting 6 6.1
2019-Dec-04 21:14 291 2 gusting 7 6.7
2019-Dec-04 21:09 261 2 gusting 7 6.7
2019-Dec-04 21:04 246 1 gusting 6 6.7